STARLINK-5363, 55497

Orbit data source: Space-Track

STARLINK-5363, 55497 is a payload satellite owned by SpaceX/Seattle (US) in LEO that was launched on Thu, 02 Feb 2023 UTC via an FALCON 9 launch vehicle from the Air Force Eastern Test Range (AFETR). Payload-class satellites include a variety of spacecraft equipped with specific instruments for various scientific and technological missions. These include communications satellites like Starlink; space stations such as the ISS; scientific satellites like the Hubble; Earth observation satellites from companies like Planet Labs, Umbra, and HawkEye 360; GPS; miniature CubeSats for education and research; and military/defense satellites.

Loading next visibility...
Identifier
55497, 2023-015BA
Orbit
LEO
Country
Flag of USUS
Related business
Manufacturer
SpaceX/Seattle
Mission
Operational Commercial Communications
Bus & Motor
STARLINK, Unknown motor
Mass
305 kg wet, ~290 kg dry
Launch date (UTC)
2023-02-02 (4 years ago)
Launch vehicle
FALCON 9
Launch site
Air Force Eastern Test Range (AFETR)
Object type
Payload
Rocket body
Debris
Shape & HBR
Box + 1 Pan, 10.1 m
Radar Cross Section
13.562 m², Large (>1 m²)

Expand to show TLE details & history
Last TLE update: 6 hours ago

TLE from 6 hours ago
0 STARLINK-5363
1 55497U 23015BA  26258.57255284  .00000018  00000-0  10195-4 0  9991
2 55497  43.0054 347.5133 0001868 280.9681  79.0961 15.27574013199636
Epoch: 2026-09-15T13:44Z
TLE epoch observation values (Epoch: 2026-09-15T13:44:28.565Z)
Latitude
0.00002°
Longitude
146.85773°
Altitude
482.601 km
Speed
7.626 km/s
True Right ascension
23h 10m 03s
True Declination
0° 00' 00"
Sunlit
Object was in full shadow at epoch
Visualization orbit readout
Latitude
Unknown
Longitude
Unknown
Altitude
Unknown
Speed
Unknown
Apparent Right ascension
Unknown
Apparent Declination
Unknown
Sunlit
N/A
Visualization observer readout
Local Sidereal Time
12:15:35
Azimuth
Unknown
Elevation
Unknown
Doppler factor
Unknown
Orbital elements
Apogee altitude
486.293 km
Perigee altitude
483.729 km
Semi-major axis
6,863.148 km
Eccentricity
0.00019
Inclination
43.0054°
RAAN
347.5133°
Arg. of periapsis
280.9681°
True anomaly
79.11712°
Mean anomaly
79.0961°
Eccentric anomaly
79.10661°
Mean motion
3.81732 °/min
Orbital period
94.31 mins
BSTAR
0.000010195
Loading maneuver chart data...
Computing Atmospheric mass density...
Loading historical data...
Loading historical data...
Loading historical data...
Loading historical data...
Loading historical data...
Loading historical data...
Loading historical data...

Documentation

Showing up to 5 results
|